TimeCST,TemperatureF,Dew PointF,Humidity,Sea Level PressureIn,VisibilityMPH,Wind Direction,Wind SpeedMPH,Gust SpeedMPH,PrecipitationIn,Events,Conditions,WindDirDegrees,DateUTC
12:53 AM,23.0,18.0,81,30.43,10.0,Calm,Calm,-,N/A,,Clear,0,2013-11-27 06:53:00
1:53 AM,21.9,18.0,85,30.41,10.0,Calm,Calm,-,N/A,,Clear,0,2013-11-27 07:53:00
2:53 AM,21.9,18.0,85,30.40,10.0,South,4.6,-,N/A,,Clear,180,2013-11-27 08:53:00
3:53 AM,21.9,18.0,85,30.38,10.0,South,5.8,-,N/A,,Clear,190,2013-11-27 09:53:00
4:53 AM,19.9,17.1,89,30.38,10.0,SSW,5.8,-,N/A,,Clear,210,2013-11-27 10:53:00
5:53 AM,23.0,19.0,85,30.37,10.0,SSE,4.6,-,N/A,,Clear,160,2013-11-27 11:53:00
6:53 AM,21.9,18.0,85,30.38,10.0,South,8.1,-,N/A,,Clear,190,2013-11-27 12:53:00
7:53 AM,23.0,19.0,85,30.37,10.0,South,8.1,-,N/A,,Clear,190,2013-11-27 13:53:00
8:53 AM,27.0,21.9,81,30.35,10.0,SSW,6.9,-,N/A,,Clear,200,2013-11-27 14:53:00
9:53 AM,32.0,27.0,82,30.33,10.0,SSW,6.9,-,N/A,,Clear,200,2013-11-27 15:53:00
10:53 AM,37.9,28.9,70,30.30,10.0,South,11.5,-,N/A,,Clear,190,2013-11-27 16:53:00
11:53 AM,44.1,32.0,63,30.25,10.0,South,9.2,-,N/A,,Clear,190,2013-11-27 17:53:00
12:53 PM,48.9,32.0,52,30.19,10.0,SSW,13.8,-,N/A,,Clear,200,2013-11-27 18:53:00
1:53 PM,53.1,30.9,43,30.14,10.0,SSW,20.7,-,N/A,,Clear,200,2013-11-27 19:53:00
2:53 PM,55.9,32.0,40,30.11,10.0,SSW,20.7,-,N/A,,Clear,200,2013-11-27 20:53:00
3:53 PM,55.0,34.0,45,30.10,10.0,SSW,18.4,-,N/A,,Clear,200,2013-11-27 21:53:00
4:53 PM,52.0,35.1,53,30.11,10.0,SSW,16.1,-,N/A,,Clear,200,2013-11-27 22:53:00
5:53 PM,46.0,34.0,63,30.12,10.0,South,11.5,-,N/A,,Clear,190,2013-11-27 23:53:00
6:53 PM,42.1,33.1,70,30.13,10.0,SSW,10.4,-,N/A,,Clear,200,2013-11-28 00:53:00
7:53 PM,41.0,33.1,73,30.13,10.0,SSW,12.7,-,N/A,,Clear,210,2013-11-28 01:53:00
8:53 PM,41.0,33.1,73,30.12,10.0,SSW,15.0,-,N/A,,Clear,210,2013-11-28 02:53:00
9:53 PM,39.0,32.0,76,30.11,10.0,SSW,13.8,-,N/A,,Clear,210,2013-11-28 03:53:00
10:53 PM,39.0,30.9,73,30.10,10.0,SSW,9.2,-,N/A,,Clear,210,2013-11-28 04:53:00
11:53 PM,36.0,30.0,79,30.11,10.0,WSW,6.9,-,N/A,,Clear,240,2013-11-28 05:53:00